Location: ????????
(56.1167°N, 38.6333°E)
Time: 22:01:28
(UTC+00:00)

Cosmos 2278 Rocket - Pass Details

Date: 18 November 2025
Orbit: 841 x 843 km, 71.0° (Epoch: 14 December)

Event Time Altitude Azimuth Distance (km) Brightness Sun altitude
Rises 15:56:11 0° 217° (SW) 3,389 5.9 -22.3°
Reaches altitude 10° 15:58:37 10° 219° (SW) 2,458 5.1 -22.6°
Maximum altitude 16:04:16 79° 306° (NW) 865 2.2 -23.4°
Enters shadow 16:06:53 34° 28° (NNE) 1,376 3.0 -23.8°
